RH
20 19 20 20 19 18 18 18 18 18 18 17 16 15 13 12 13 18 40 61 68 55 44 36 37 40 51 63 67 55 41 24 20 18 18 19 23 25 22 17 13 14 14 12 11
23 23 23 23 24 28 24 20 19 19 20 20 18 18 17 15 13 15 36 44 60 71 54 43 48 50 58 74 74 69 55 32 26 23 21 22 26 26 22 17 15 16 14 12 9
29 28 28 28 27 30 31 24 24 22 22 23 20 18 17 17 14 16 20 29 48 68 58 48 49 62 66 79 76 70 62 62 46 25 23 25 29 27 22 17 17 16 13 8 5
36 34 34 34 34 34 33 29 26 25 24 23 21 20 18 18 17 16 17 23 46 77 75 66 72 86 76 87 85 84 86 84 58 27 25 31 42 27 22 19 19 16 12 6 3
37 38 36 34 34 34 32 32 30 24 25 26 25 26 22 18 17 21 22 27 41 84 88 88 87 91 95 95 96 99 98 86 59 33 33 60 35 27 22 21 18 13 7 4 2
41 42 40 39 36 35 34 34 34 27 27 28 28 28 25 21 24 22 19 21 51 88 100 96 94 94 95 96 96 96 87 58 40 32 60 42 30 26 24 21 16 8 5 3 2
47 44 42 41 40 39 40 39 35 30 26 28 30 32 27 24 25 24 26 35 76 100 99 97 97 97 96 96 96 96 93 55 37 72 57 34 30 27 25 19 11 6 4 2 2
43 43 45 47 49 47 47 42 36 35 33 35 33 32 32 33 30 26 44 68 98 100 100 96 97 98 98 97 97 96 79 46 76 70 46 35 31 29 23 13 7 5 3 2 2
46 45 42 45 50 53 52 49 42 41 42 47 36 35 34 32 25 20 55 79 100 100 95 99 99 97 96 96 97 96 65 80 83 69 42 35 33 26 18 9 6 4 3 2 1
53 53 51 49 53 59 61 58 51 49 55 54 39 40 36 30 22 26 56 84 97 100 99 94 95 93 97 96 98 96 92 91 82 56 44 37 31 22 13 7 5 4 2 2 2
67 63 61 59 60 62 63 64 59 53 78 57 51 44 39 26 29 52 65 86 94 98 99 100 97 95 96 97 96 96 95 95 66 79 46 39 28 16 9 6 4 3 2 1 5
77 75 70 70 62 56 57 56 55 56 60 72 56 45 37 32 49 71 83 88 89 98 98 98 98 98 98 97 97 96 96 94 93 61 54 39 17 11 8 5 4 2 2 1 12
75 72 66 66 56 45 45 54 66 66 67 65 54 46 49 52 67 72 82 89 91 93 100 98 97 97 97 97 95 95 96 89 69 67 50 30 14 10 6 5 4 3 2 4 38
75 69 62 42 41 40 56 90 96 65 55 62 61 62 62 57 80 85 94 93 93 96 94 98 97 97 98 98 97 95 96 95 93 75 39 20 13 9 6 5 4 3 2 13 56
70 63 40 40 34 50 98 100 99 88 55 70 67 64 61 76 77 91 81 82 92 97 98 97 98 96 96 96 96 97 96 96 94 49 29 14 12 8 6 5 4 2 2 40 42
58 53 44 45 46 98 100 99 98 95 69 77 78 77 69 79 82 87 86 88 88 96 98 97 98 98 97 97 96 97 99 97 69 38 20 14 11 8 6 3 3 2 4 43 44
29 18 36 36 94 100 99 98 98 95 94 87 94 86 78 83 88 100 93 91 93 95 96 96 97 98 97 97 97 98 98 85 54 31 18 13 10 8 6 3 2 1 7 35 52
16 15 13 30 56 100 99 100 98 95 92 77 87 94 88 76 79 95 94 94 94 95 96 98 96 97 98 98 98 97 96 71 46 23 17 12 10 8 6 4 2 1 14 30 59
5 4 4 6 25 99 100 100 98 100 100 94 74 86 89 96 82 89 92 92 97 97 97 93 96 98 97 97 96 96 96 71 36 22 18 13 10 9 6 4 2 1 26 41 58
4 4 4 3 3 10 66 80 73 58 52 86 63 87 95 92 88 90 89 95 95 95 97 98 95 97 97 97 97 97 96 56 32 22 17 14 10 10 6 3 2 2 27 50 66
4 4 3 3 3 3 3 3 4 6 20 38 56 89 100 99 95 90 95 93 95 96 96 97 98 98 98 97 97 97 96 53 29 22 16 14 11 9 6 2 2 2 30 58 79
4 4 4 3 3 3 4 6 6 17 25 51 90 99 100 97 97 86 96 98 94 97 96 98 98 97 98 98 98 97 96 46 29 21 17 14 12 9 5 2 2 3 34 62 82
5 4 4 3 3 3 5 6 11 54 83 83 98 98 100 100 98 92 98 98 97 100 99 98 97 98 98 98 98 96 96 41 30 22 18 13 12 10 5 2 2 2 39 58 78
6 5 4 4 3 4 4 16 90 62 80 67 87 90 99 100 99 92 98 94 99 98 99 99 99 99 98 98 99 97 92 41 32 22 17 14 14 10 5 2 2 1 31 67 88
7 6 5 4 5 4 6 11 82 100 92 89 96 91 96 99 94 95 100 97 98 99 99 99 98 98 98 100 100 98 86 43 32 23 19 15 15 11 5 3 2 1 24 49 68
9 7 5 4 4 4 11 54 60 100 94 96 84 100 98 99 92 90 96 97 98 98 99 99 99 97 96 98 98 98 69 49 34 25 20 16 17 12 6 4 2 1 17 43 56
10 9 8 6 5 4 7 40 99 100 97 88 90 98 100 100 90 89 95 98 99 99 98 98 97 97 99 98 98 97 78 53 37 28 23 19 20 14 8 4 2 1 8 34 45
Wind_Speed
28 29 32 31 30 32 32 32 32 34 35 35 36 31 33 35 36 34 36 36 35 35 36 36 33 32 31 30 30 34 36 37 38 38 39 37 37 38 39 39 41 43 45 48 51
34 34 36 35 34 35 35 35 36 36 36 36 35 33 34 35 34 35 36 36 36 37 38 36 36 34 33 31 30 33 35 36 36 38 37 37 37 38 39 41 43 45 47 51 54
38 38 38 39 38 39 38 38 39 40 37 34 34 35 32 35 35 36 37 37 36 37 38 38 37 38 36 33 32 33 35 36 36 37 36 37 37 39 41 42 44 46 49 52 56
43 43 43 41 42 42 43 42 41 40 38 37 34 35 34 35 36 36 37 38 39 38 39 41 40 39 39 35 34 36 37 36 33 35 35 34 37 41 41 43 45 48 52 56 61
44 44 43 43 44 45 45 46 44 42 40 38 37 36 35 35 36 37 38 39 40 40 41 42 41 40 40 38 40 39 34 29 32 34 32 34 39 40 40 43 46 50 54 60 66
45 45 45 45 46 46 46 46 43 42 39 38 38 36 36 36 36 37 39 40 40 40 42 42 43 45 47 41 42 37 30 29 32 31 31 34 36 37 40 43 47 51 57 63 69
45 46 46 47 48 48 48 48 43 42 40 35 38 38 38 37 39 39 40 40 38 39 42 43 43 42 41 43 43 39 24 27 28 31 32 32 33 36 40 44 48 53 60 65 72
47 48 50 50 51 50 49 44 42 41 38 41 37 37 40 41 40 39 38 36 35 36 36 36 33 41 35 40 43 33 22 26 28 28 28 30 33 36 41 44 49 56 62 68 76
48 50 53 51 51 49 48 44 40 41 42 40 32 38 39 36 37 38 36 35 31 39 37 36 40 43 38 35 36 27 23 25 25 26 27 29 33 36 40 45 51 58 64 70 78
52 54 55 54 52 50 46 44 37 39 42 36 33 40 37 35 35 36 34 32 33 35 36 35 39 36 34 32 34 27 24 19 22 23 25 29 33 37 41 46 52 59 65 74 69
56 56 56 55 53 49 45 43 39 43 37 32 41 41 35 34 35 33 32 32 32 31 37 39 38 36 34 36 29 25 18 15 19 21 25 29 33 37 42 48 55 60 67 74 52
56 59 56 55 53 43 43 43 45 36 35 36 37 36 33 33 33 31 27 29 30 30 33 34 34 32 37 34 22 16 15 15 16 21 23 27 31 37 42 49 56 61 71 67 43
59 54 53 48 47 37 41 44 39 33 29 26 31 32 30 30 32 31 29 31 27 27 30 32 33 33 31 24 21 18 14 12 17 21 23 26 29 36 42 50 59 68 72 55 39
55 52 49 43 42 39 40 35 31 25 23 26 29 26 25 28 27 28 22 24 25 23 23 26 29 30 23 16 17 11 10 13 17 20 22 27 31 36 43 52 61 67 60 38 31
51 47 37 37 30 36 37 33 27 22 25 22 24 26 27 24 27 29 30 30 28 25 24 20 22 21 18 14 14 10 11 14 16 18 21 26 32 37 44 51 59 66 48 28 34
43 38 33 28 30 33 38 33 29 19 24 23 26 26 25 26 25 25 28 26 24 22 20 20 19 19 12 13 13 8 11 12 14 17 20 26 32 37 46 51 61 61 34 22 32
35 30 29 27 30 31 28 33 26 23 21 24 25 25 26 24 24 23 21 22 22 21 19 19 18 14 16 15 8 8 9 11 13 16 22 27 33 39 47 54 61 60 25 23 33
34 34 34 33 31 30 22 29 22 22 25 29 28 27 27 26 25 24 25 26 22 19 18 17 17 15 16 18 9 7 6 11 17 19 22 26 33 39 47 54 61 56 21 21 31
35 37 37 38 40 39 41 38 39 34 41 31 35 30 27 26 25 26 26 22 19 21 21 17 16 15 15 12 7 6 3 9 13 18 21 26 33 41 47 55 57 43 15 19 25
34 36 36 37 39 45 52 52 51 49 47 42 39 28 29 23 22 24 22 19 19 19 17 17 15 13 14 11 8 5 3 8 14 19 23 27 32 40 46 53 54 34 14 18 24
33 32 34 37 39 41 41 43 44 41 35 32 34 31 22 22 19 19 19 17 18 18 18 15 12 12 11 11 10 5 0 7 12 17 23 27 32 39 45 51 52 27 11 16 19
32 32 31 31 33 34 34 34 35 29 26 29 30 26 18 20 19 18 19 18 19 18 17 14 12 8 9 10 9 6 1 7 11 15 20 25 31 38 43 49 51 21 9 14 15
32 31 28 28 29 30 30 30 31 23 24 28 25 24 19 20 20 15 17 15 15 17 15 14 12 11 9 8 7 6 0 5 10 14 19 25 30 36 42 49 50 21 7 12 14
33 31 26 25 26 27 29 26 20 25 25 25 30 27 25 16 12 16 15 14 13 16 14 11 11 9 8 7 7 5 2 5 9 13 18 23 29 36 40 48 49 25 5 12 14
32 29 27 24 24 26 27 26 22 20 25 24 25 27 30 12 11 13 13 15 15 15 13 10 8 8 7 5 8 6 3 4 7 12 17 21 27 33 38 46 48 29 6 10 11
31 29 25 23 23 25 26 23 23 20 20 24 23 27 25 16 14 15 14 16 14 14 11 9 8 6 6 7 8 7 2 3 7 11 15 19 26 31 36 43 47 33 8 8 9
31 31 28 24 22 23 22 26 22 24 19 18 25 26 23 17 17 15 14 14 12 11 9 10 9 7 8 8 8 7 3 2 6 9 13 18 23 28 33 40 45 38 8 10 9
Wind_Direction
294 293 293 297 299 299 301 303 306 307 308 307 305 304 303 302 303 300 294 286 279 276 274 272 267 266 263 264 268 268 267 266 267 267 268 271 276 276 277 280 282 286 290 292 293
289 293 298 299 297 300 302 304 305 305 308 309 306 304 304 302 303 306 302 295 288 279 273 270 270 266 262 265 270 272 268 266 267 269 271 275 277 276 280 283 286 291 294 296 297
293 293 295 296 298 299 303 307 309 308 305 305 304 303 306 304 304 303 300 292 286 278 269 266 267 270 267 270 276 274 270 267 268 268 271 277 279 280 283 286 290 294 297 299 301
297 297 296 298 300 299 301 304 306 306 306 306 305 305 303 303 305 303 298 294 285 276 268 266 267 266 268 272 275 272 264 261 266 268 273 279 279 282 286 291 295 299 301 302 303
291 293 294 293 297 300 302 306 310 309 308 306 304 302 302 300 298 299 300 295 288 275 268 269 267 267 267 272 274 282 272 265 266 267 275 276 279 283 290 295 299 302 304 306 306
293 294 295 296 296 296 300 306 309 308 307 305 305 302 299 296 297 299 298 293 284 278 271 265 265 269 274 275 279 274 258 262 266 271 273 278 282 289 295 300 303 306 308 310 310
292 292 294 294 295 297 302 305 309 308 308 307 304 303 300 298 297 298 296 289 281 276 273 271 275 281 289 274 285 276 257 263 269 271 276 282 289 295 300 304 307 309 312 314 314
291 294 297 300 301 302 305 306 307 309 309 310 304 304 301 299 299 300 300 296 282 273 271 276 282 285 289 293 281 263 256 264 266 276 281 288 295 302 304 309 312 314 315 317 321
291 292 294 296 298 302 303 304 305 307 311 308 299 306 305 305 304 305 305 300 280 273 269 276 273 274 285 285 285 253 252 262 274 280 288 296 302 306 308 314 315 316 320 321 326
289 291 292 294 297 300 300 304 301 304 306 302 299 306 303 305 305 307 303 299 290 280 274 273 278 272 278 285 278 244 247 266 277 285 296 301 306 309 313 316 318 321 325 328 327
289 289 291 292 293 299 300 302 300 304 295 299 298 301 303 305 306 307 304 301 295 285 271 271 275 277 271 281 259 243 246 270 281 294 300 307 311 313 319 321 323 327 328 333 328
288 289 290 293 295 300 296 296 299 299 295 293 294 300 303 305 308 312 304 306 300 287 277 270 273 268 269 266 245 238 255 270 288 296 303 310 316 319 322 326 328 329 334 335 329
288 291 294 297 296 297 296 290 292 293 293 295 295 299 305 308 312 314 304 306 305 295 283 278 274 268 261 241 231 237 256 297 295 301 313 311 320 322 327 333 335 335 339 334 336
290 291 293 291 292 294 294 292 269 294 289 288 295 295 303 309 313 318 308 315 322 323 319 289 269 256 245 240 243 241 264 282 295 309 318 319 323 327 334 340 340 339 338 332 334
289 289 287 291 290 297 295 280 276 271 292 292 293 294 298 308 314 306 305 306 316 326 327 305 263 237 226 243 244 245 270 288 303 318 321 324 327 333 337 342 341 343 337 332 344
289 287 287 278 281 270 269 263 262 277 290 289 289 290 294 304 321 309 306 311 309 318 322 321 302 272 250 261 256 287 297 301 313 321 328 330 336 339 340 343 347 344 338 339 355
285 278 267 263 274 267 262 260 263 277 302 302 294 293 291 299 317 309 309 322 317 314 317 313 314 293 272 273 276 303 298 308 321 333 340 340 340 343 345 347 348 348 348 354 10
276 271 264 257 254 256 260 265 261 265 291 301 302 283 294 295 306 303 305 308 318 322 313 309 303 290 277 271 281 279 303 326 336 340 343 344 344 350 350 350 351 350 2 360 21
275 272 267 261 251 250 257 262 271 271 279 294 287 289 284 292 303 303 306 308 310 313 318 307 308 290 286 266 254 255 281 325 329 332 340 345 344 356 354 353 353 353 17 13 28
279 276 275 268 262 260 260 266 273 281 283 289 282 278 282 285 298 305 311 303 307 310 312 306 300 281 279 263 241 234 276 329 334 341 344 348 347 355 358 357 355 357 20 23 29
284 281 280 277 272 270 270 268 270 274 277 281 277 277 269 282 297 305 309 307 314 313 313 309 299 276 273 253 245 228 310 337 341 344 346 350 352 355 1 0 359 2 24 36 49
285 286 283 279 277 273 271 268 267 268 268 275 267 250 266 279 293 295 300 305 314 315 311 311 306 286 265 271 254 238 38 337 346 350 353 352 355 359 3 4 3 8 39 53 66
288 290 287 281 278 273 270 267 266 259 245 249 252 247 252 269 294 293 300 300 309 321 309 309 303 288 273 250 231 222 242 338 351 351 357 357 357 2 5 8 5 13 47 61 50
290 292 290 286 280 274 269 260 257 251 248 251 255 257 248 261 282 299 293 291 298 323 319 304 295 287 274 290 236 192 154 336 353 357 2 3 1 5 7 12 8 10 78 78 69
289 292 290 290 282 273 267 257 245 257 243 248 253 250 236 255 282 291 289 287 295 312 317 312 302 283 272 235 229 231 148 338 358 4 4 3 4 10 10 15 10 11 118 92 92
288 291 290 291 285 273 264 253 235 251 241 245 257 240 234 254 275 284 284 289 289 301 307 301 300 277 247 222 220 216 139 339 4 6 4 4 7 11 14 19 14 13 134 119 117
286 288 291 295 289 282 264 247 231 249 252 240 247 228 247 243 261 275 276 288 278 291 303 302 298 280 245 232 219 196 171 334 7 8 6 6 7 13 19 22 18 15 132 142 146